Погода Конево

Погода Конево : погода сейчас, прогноз погоды и архив. Всё, что Вы хотите узнать о погоде Конево!

Поиск расширенной информации на нашем сайте:

Другие новости

Новости СМИ2

Главная страница сайта

Новости сайта

03.07.2017

Напоминаем, что на нашем специализированном сайте Метеоцентр.Азия вы можете получить высокодетализированные автоматические прогнозы погоды по пунктам России, СНГ и мира в авиационном формате (включающие направление и скорость ветра, видимость, явления погоды, количество и форму облачности, нижнюю и верхнюю границу облачности).


Погода Конево - сегодня

Время (UTC), дата Ветер
(°,м/с) 
Видим.   Явления Облачность Т
(°С)
Тd
(°С)
f(%) Тe
(°С)
Pmin
(гПа)
dP
(гПа)
Po
(мм)
O2
(г/м3)
Тmin Tmax R s Состояние
почвы
18 12.12.17 170 (Ю) 5{12}  10 км  позёмок  10/10 330 м 
[St]
-0.9 -2.2 91 -4  1009.5  -2.9  748  303           
21 12.12.17 170 (Ю) 6-13{13}  10 км  позёмок  10/10 360 м 
[St]
-0.5 -2 90 -4  1005.2  -4.2  745  301           
00 13.12.17 170 (Ю) 7-13{17}  4000 м  метель  10/10 330 м 
[St]
-1.1 -1.6 96 -5  1000.6  -4.5  741  300           
03 13.12.17 180 (Ю) 6-13{13}  2000 м  слаб. ливневой снег  10/10 450 м кучево-дожд. 
[Cb cap]
-0.8 -0.8 100 -4  998.2  -2.4  739  299  -1.6    0.4  18  равномерный
сухой снег
100% 
06 13.12.17 190 (Ю) 6-14{14}  10 км  в посл. час ливневой снег  10/8 450 м кучево-дожд., средняя 
[Cb cap|As op]
+0.5 +0.2 98 -3  996  -2.1  738  297           
09 13.12.17 200 (Ю) 7-13{14}  4000 м  слаб. морось  10/10 240 м 
[St]
+1.2 +1.2 100 -2  994.2  -1.7  736  295           
12 13.12.17 200 (Ю) 7-13{15}  20000 м  {ливн. осадки, морось}  10/8 500 м кучево-дожд., средняя 
[Cb cap|As op]
+2.1 +1.3 94 -1  993.5  -0.6  736  294           
15 13.12.17 240 (ЮЗ) 6-10{13}  20000 м  в посл. час ливневой снег  10/8 450 м кучево-дожд., средняя 
[Cb cap|As op]
+1 -0.2 92 -2  996.4  2.8  738  296    +2.3     
18 13.12.17 240 (ЮЗ) 5-10{12}  20000 м  {ливн. осадки}  10/6 800 м кучево-дожд., средняя 
[Cb cap|As op]
+0.1 -2.3 84 -3  999.9  3.4  741  299           
21 13.12.17 240 (ЮЗ) 4{12}  20000 м    4/0 средняя 
[As trans]
-1.3 -3.7 84 -4  1002.6  2.6  743  301           
00 14.12.17 230 (ЮЗ) 6{10}  20000 м    10/10 700 м 
[Sc]
-0.5 -2.6 86 -4  1004.5  1.8  744  301           
03 14.12.17 210 (ЮЗ) 5{13}  20000 м    10/10 750 м 
[Sc]
-1.5 -3.5 86 -5  1006.2  1.6  745  302  -1.5      16  равномерный
мокрый или
старый снег
100% 
06 14.12.17 210 (ЮЗ) 5{11}  4000 м  слаб. ливневой снег  10/10 660 м кучево-дожд. 
[Cb cap]
-1.7 -2.6 94 -5  1007.6  1.4  746  303  -2         
09 14.12.17 210 (ЮЗ) 6{10}  20000 м  {ливн. осадки}  9/6 660 м кучево-дожд., средняя 
[Cb cap|As trans]
-1.2 -2.3 92 -5  1009.1  1.5  747  303           
12 14.12.17 200 (Ю) 20000 м  {ливн. осадки}  10/6 540 м кучево-дожд., средняя 
[Cb cap|As op]
-1.8 -2.7 94 -4  1009.6  0.5  748  304           
15 14.12.17 190 (Ю) 20000 м    10/10 1050 м 
[Sc]
-2.2 -2.7 96 -4  1009.7  0.1  748  304    -1.2  0.0     
18 14.12.17 170 (Ю) 20000 м    10/10 840 м 
[Sc]
-2.5 -3.1 96 -4  1009.7  0.1  748  304           
21 14.12.17 200 (Ю) 10 км    10/10 330 м 
[St]
-4.5 -4.5 100 -6  1009.4  -0.4  748  307           
00 15.12.17 140 (ЮВ) 10 км    10/10 240 м 
[St]
-5.6 -5.6 100 -7  1008.9  -0.5  747  308           
03 15.12.17 090 (В) 10 км    10/10 360 м 
[St]
-6 -6 100 -6  1008.2  -0.7  747  308  -6.3      16  равномерный
мокрый или
старый снег
100% 
06 15.12.17 070 (В) 10 км    10/10 360 м 
[St]
-6.1 -6.1 100 -8  1007.3  -0.9  746  308           
09 15.12.17 080 (В) 10 км    10/10 360 м 
[St]
-4.4 -4.4 100 -4  1006.1  -1.1  745  306           
12 15.12.17 140 (ЮВ) 4000 м  слаб. ливневой снег  10/10 500 м кучево-дожд. 
[Cb cap]
-3.2 -3.2 100 -3  1004.8  -1.3  744  304           
15 15.12.17 180 (Ю) 2000 м  слаб. ливневой снег  10/10 480 м кучево-дожд. 
[Cb cap]
-1.7 -1.7 100 -4  1004  -0.7  744  302    -1.7  0.6     
18 15.12.17 200 (Ю) 4000 м  слаб. ливневой снег  10/10 450 м кучево-дожд. 
[Cb cap]
+0.4 -0.1 96 -3  1005.2  1.3  745  300           
Время (UTC), дата Ветер
(°,м/с) 
Видим.   Явления Облачность Т
(°С)
Тd
(°С)
f(%) Тe
(°С)
Pmin
(гПа)
dP
(гПа)
Po
(мм)
O2
(г/м3)
Тmin Tmax R s Состояние
почвы

Для получения пояснительной информации подведите курсор к названию столбца.

ПОГОДА Конево - архив

Всё, что Вы хотите узнать о погоде Конево - удобно и подробно!

Выберите нужную дату (начиная с 1 января 2015* года) и нажмите кнопку "Найти".
Будут отображены архивные сводки погоды по пункту Конево, начиная с указанной даты.


Отображать данные в формате CSV (для использования в таблицах Excel)


Внимание! Наш архив погоды предназначен исключительно для личного некоммерческого использования в познавательных целях. Если Вам необходимы официальные справки о состоянии погоды (для производственных, юридических, коммерческих и т.п. целей), обращайтесь в органы Росгидромета.

*Примечание: данная дата относится к архиву по метеостанциям СССР (Россия, СНГ, Балтия).
Архив по метеостанциям Зарубежной Европы и Азии (кроме Китая) хранится 10 дней, по другим регионам земного шара (Китай, Африка, Америка, Австралия, Океания) - 1 день.

Конево - район местоположения метеостанции


Название, широта, долгота, высота метеостанции:
Конево 62.1°ш. 39.3°д. 100 м над ур. моря [Российская Федерация]

Дополнительная информация

В oтличие oт бoльшинства пoгoдных сайтoв мы публикуем пoдрoбную метеoинфoрмацию в детальнoм прoфессиoнальнoм фoрмате.

Характеристики температуры и влажнoсти вoздуха измеряются на высoте 2 м в тени вдали oт зданий и деревьев.
Скoрoсть ветра измеряется на высoте 10 м (на урoвне рoста челoвека скoрoсть ветра ниже в 1.5-2 раза). Если метеoстанция нахoдится в гoрoде или в лесу, тo скoрoсть ветра занижена на 2-4 м/с пo сравнению с oткрытым местoм. Скoрoсть ветра над акватoриями крупных рек и oзёр, а также на вершинах хoлмoв на 2-5 м/с выше, чем в oбычных услoвиях.
Атмoсфернoе давление в разных тoчках местнoсти мoжет значительнo oтличаться oт давления на метеoстанции, в зависимoсти oт услoвий рельефа (при пoдъёме на 10 м давление пoнижается примернo на 1 мм рт.ст.).